IAN540 DNMM-DNCA

Flight info

Callsign IAN540
Flight time 0h 56m
Altitude 27000
Route LAG UR984 POT V213 ODRED CAL
Aircraft CRJ9/M-V/N

Departure

Time 2026-04-24 12:33
Airport Murtala Muhammed International Airport (DNMM)

Arrival

Time 2026-04-24 13:29
Airport Margaret Ekpo International Airport (DNCA)
Time Latitude Longitude Altitude Speed Heading
2026-04-24 12:22 6.58407 3.33195 142 ft 0 kts 71°
2026-04-24 12:22 6.58407 3.33194 142 ft 1 kts 71°
2026-04-24 12:22 6.58400 3.33182 142 ft 3 kts 50°
2026-04-24 12:23 6.58384 3.33171 142 ft 3 kts 17°
2026-04-24 12:23 6.58375 3.33169 142 ft 0 kts
2026-04-24 12:25 6.58376 3.33169 142 ft 0 kts
2026-04-24 12:25 6.58380 3.33170 142 ft 2 kts
2026-04-24 12:25 6.58407 3.33168 142 ft 6 kts 354°
2026-04-24 12:26 6.58456 3.33159 142 ft 8 kts 343°
2026-04-24 12:26 6.58511 3.33132 142 ft 9 kts 321°
2026-04-24 12:26 6.58542 3.33091 142 ft 8 kts 295°
2026-04-24 12:26 6.58565 3.33049 142 ft 5 kts 323°
2026-04-24 12:27 6.58582 3.33042 142 ft 0 kts 353°
2026-04-24 12:27 6.58594 3.33041 142 ft 4 kts 354°
2026-04-24 12:28 6.58638 3.33039 142 ft 9 kts 358°
2026-04-24 12:28 6.58716 3.33038 142 ft 13 kts 359°
2026-04-24 12:28 6.58821 3.33037 142 ft 15 kts 359°
2026-04-24 12:28 6.58914 3.33036 142 ft 11 kts 359°
2026-04-24 12:29 6.59003 3.33035 142 ft 15 kts 359°
2026-04-24 12:29 6.59095 3.33034 142 ft 15 kts 358°
2026-04-24 12:29 6.59209 3.33032 142 ft 18 kts 359°
2026-04-24 12:29 6.59333 3.33032 142 ft 20 kts
2026-04-24 12:30 6.59453 3.33031 142 ft 15 kts
2026-04-24 12:30 6.59549 3.33031 142 ft 13 kts 359°
2026-04-24 12:30 6.59623 3.33028 142 ft 5 kts 343°
2026-04-24 12:30 6.59646 3.32996 142 ft 6 kts 274°
2026-04-24 12:31 6.59647 3.32963 142 ft 6 kts 271°
2026-04-24 12:31 6.59651 3.32918 142 ft 6 kts 283°
2026-04-24 12:31 6.59646 3.32885 142 ft 5 kts 206°
2026-04-24 12:31 6.59634 3.32883 142 ft 0 kts 181°
2026-04-24 12:32 6.59633 3.32883 142 ft 0 kts 181°
2026-04-24 12:32 6.59618 3.32883 142 ft 12 kts 180°
2026-04-24 12:32 6.59327 3.32886 142 ft 76 kts 179°
2026-04-24 12:32 6.58567 3.32894 142 ft 144 kts 179°
2026-04-24 12:33 6.57454 3.32905 547 ft 165 kts 182°
2026-04-24 12:33 6.56251 3.32856 1210 ft 177 kts 189°
2026-04-24 12:33 6.55008 3.32825 1928 ft 187 kts 180°
2026-04-24 12:33 6.53820 3.33408 2650 ft 200 kts 134°
2026-04-24 12:34 6.53255 3.34682 3588 ft 199 kts 108°
2026-04-24 12:34 6.52794 3.36003 4407 ft 208 kts 112°
2026-04-24 12:34 6.52280 3.37400 5212 ft 216 kts 111°
2026-04-24 12:34 6.51783 3.38849 5856 ft 226 kts 110°
2026-04-24 12:35 6.51283 3.40396 6544 ft 239 kts 110°
2026-04-24 12:35 6.50789 3.42025 7238 ft 252 kts 110°
2026-04-24 12:35 6.50271 3.43742 8075 ft 260 kts 110°
2026-04-24 12:35 6.49741 3.45505 8773 ft 265 kts 110°
2026-04-24 12:36 6.49203 3.47301 9465 ft 269 kts 109°
2026-04-24 12:36 6.48666 3.49115 10124 ft 276 kts 109°
2026-04-24 12:36 6.48104 3.51002 10598 ft 291 kts 108°
2026-04-24 12:36 6.47502 3.52999 11406 ft 301 kts 107°
2026-04-24 12:37 6.46884 3.55035 12156 ft 308 kts 107°
2026-04-24 12:37 6.46259 3.57099 12875 ft 314 kts 106°
2026-04-24 12:37 6.45613 3.59233 13415 ft 321 kts 105°
2026-04-24 12:37 6.44966 3.61356 13770 ft 317 kts 104°
2026-04-24 12:38 6.44317 3.63510 14096 ft 334 kts 104°
2026-04-24 12:38 6.43681 3.65659 14815 ft 338 kts 104°
2026-04-24 12:38 6.43007 3.67908 15487 ft 345 kts 104°
2026-04-24 12:39 6.40854 3.75022 17443 ft 361 kts 104°
2026-04-24 12:39 6.40111 3.77474 18026 ft 368 kts 105°
2026-04-24 12:39 6.39357 3.79949 18571 ft 374 kts 104°
2026-04-24 12:40 6.38589 3.82450 19149 ft 379 kts 105°
2026-04-24 12:40 6.37818 3.84983 19749 ft 382 kts 104°
2026-04-24 12:40 6.37047 3.87540 20435 ft 383 kts 105°
2026-04-24 12:40 6.36269 3.90111 21072 ft 385 kts 105°
2026-04-24 12:41 6.35485 3.92719 21549 ft 391 kts 105°
2026-04-24 12:41 6.34628 3.95316 22025 ft 396 kts 109°
2026-04-24 12:41 6.33541 3.97896 22547 ft 400 kts 114°
2026-04-24 12:41 6.32334 4.00423 23087 ft 402 kts 115°
2026-04-24 12:42 6.31123 4.02946 23606 ft 404 kts 115°
2026-04-24 12:42 6.29950 4.05530 24095 ft 407 kts 114°
2026-04-24 12:42 6.28828 4.08154 24540 ft 410 kts 113°
2026-04-24 12:42 6.27716 4.10824 24938 ft 415 kts 113°
2026-04-24 12:43 6.26584 4.13518 25311 ft 419 kts 114°
2026-04-24 12:43 6.25445 4.16177 25674 ft 423 kts 114°
2026-04-24 12:43 6.24255 4.18897 26112 ft 424 kts 114°
2026-04-24 12:43 6.23074 4.21605 26559 ft 425 kts 114°
2026-04-24 12:44 6.21880 4.24352 26807 ft 432 kts 114°
2026-04-24 12:44 6.20667 4.27145 26905 ft 440 kts 114°
2026-04-24 12:44 6.19449 4.29983 26937 ft 445 kts 114°
2026-04-24 12:44 6.18223 4.32825 26942 ft 448 kts 114°
2026-04-24 12:45 6.16958 4.35749 26944 ft 450 kts 114°
2026-04-24 12:45 6.15728 4.38611 26938 ft 448 kts 114°
2026-04-24 12:45 6.14488 4.41478 26936 ft 444 kts 114°
2026-04-24 12:45 6.13256 4.44316 26937 ft 441 kts 114°
2026-04-24 12:46 6.12032 4.47130 26934 ft 438 kts 114°
2026-04-24 12:46 6.10833 4.49899 26932 ft 436 kts 114°
2026-04-24 12:46 6.09637 4.52680 26932 ft 435 kts 114°
2026-04-24 12:46 6.08421 4.55488 26933 ft 435 kts 114°
2026-04-24 12:47 6.07201 4.58295 26931 ft 435 kts 114°
2026-04-24 12:47 6.05998 4.61072 26930 ft 434 kts 114°
2026-04-24 12:47 6.04803 4.63835 26930 ft 434 kts 114°
2026-04-24 12:47 6.03689 4.66399 26929 ft 434 kts 114°
2026-04-24 12:48 6.02487 4.69187 26928 ft 434 kts 114°
2026-04-24 12:48 6.01294 4.71941 26924 ft 433 kts 114°
2026-04-24 12:48 6.00087 4.74715 26921 ft 433 kts 114°
2026-04-24 12:48 5.98888 4.77492 26921 ft 433 kts 114°
2026-04-24 12:49 5.97688 4.80264 26921 ft 433 kts 114°
2026-04-24 12:49 5.96485 4.83042 26922 ft 432 kts 114°
2026-04-24 12:49 5.95687 4.84886 26922 ft 432 kts 114°
2026-04-24 12:49 5.94496 4.87642 26922 ft 432 kts 114°
2026-04-24 12:50 5.93306 4.90393 26921 ft 430 kts 114°
2026-04-24 12:50 5.91722 4.94058 26901 ft 425 kts 114°
2026-04-24 12:50 5.90544 4.96782 26880 ft 420 kts 114°
2026-04-24 12:50 5.89765 4.98581 26875 ft 420 kts 114°
2026-04-24 12:51 5.88232 5.02123 26873 ft 419 kts 114°
2026-04-24 12:51 5.87451 5.03930 26873 ft 419 kts 114°
2026-04-24 12:51 5.86283 5.06631 26872 ft 419 kts 114°
2026-04-24 12:51 5.85113 5.09313 26871 ft 419 kts 114°
2026-04-24 12:52 5.83935 5.12020 26871 ft 419 kts 114°
2026-04-24 12:52 5.82790 5.14662 26871 ft 417 kts 114°
2026-04-24 12:52 5.81252 5.18213 26874 ft 413 kts 114°
2026-04-24 12:52 5.80494 5.19957 26875 ft 412 kts 114°
2026-04-24 12:53 5.79340 5.22601 26883 ft 409 kts 114°
2026-04-24 12:53 5.78201 5.25224 26890 ft 407 kts 114°
2026-04-24 12:53 5.77073 5.27829 26898 ft 407 kts 114°
2026-04-24 12:53 5.75964 5.30387 26871 ft 395 kts 114°
2026-04-24 12:54 5.74848 5.32950 26868 ft 405 kts 114°
2026-04-24 12:54 5.73703 5.35576 26880 ft 415 kts 114°
2026-04-24 12:54 5.72528 5.38264 26885 ft 424 kts 114°
2026-04-24 12:54 5.71343 5.40969 26895 ft 433 kts 114°
2026-04-24 12:55 5.70117 5.43765 26902 ft 443 kts 114°
2026-04-24 12:55 5.68872 5.46613 26903 ft 444 kts 114°
2026-04-24 12:55 5.67633 5.49487 26903 ft 449 kts 114°
2026-04-24 12:55 5.66388 5.52349 26900 ft 451 kts 114°
2026-04-24 12:56 5.65123 5.55243 26890 ft 453 kts 114°
2026-04-24 12:56 5.63858 5.58141 26886 ft 456 kts 114°
2026-04-24 12:56 5.62583 5.61081 26885 ft 459 kts 114°
2026-04-24 12:56 5.61307 5.64004 26924 ft 460 kts 114°
2026-04-24 12:57 5.60028 5.66945 26960 ft 458 kts 114°
2026-04-24 12:57 5.58754 5.69878 26964 ft 454 kts 114°
2026-04-24 12:57 5.57504 5.72738 26941 ft 451 kts 114°
2026-04-24 12:57 5.56241 5.75636 26929 ft 447 kts 114°
2026-04-24 12:58 5.54998 5.78482 26923 ft 445 kts 114°
2026-04-24 12:58 5.53764 5.81306 26922 ft 446 kts 114°
2026-04-24 12:58 5.52517 5.84163 26921 ft 449 kts 114°
2026-04-24 12:58 5.51260 5.87044 26922 ft 451 kts 114°
2026-04-24 12:59 5.49997 5.89937 26926 ft 453 kts 114°
2026-04-24 12:59 5.48736 5.92834 26927 ft 453 kts 114°
2026-04-24 12:59 5.47473 5.95732 26928 ft 455 kts 114°
2026-04-24 12:59 5.46191 5.98672 26928 ft 457 kts 114°
2026-04-24 13:00 5.44913 6.01602 26927 ft 459 kts 114°
2026-04-24 13:00 5.43652 6.04507 26927 ft 459 kts 114°
2026-04-24 13:00 5.42367 6.07456 26928 ft 461 kts 114°
2026-04-24 13:00 5.41083 6.10397 26929 ft 462 kts 114°
2026-04-24 13:01 5.39793 6.13349 26929 ft 458 kts 114°
2026-04-24 13:01 5.38518 6.16265 26928 ft 455 kts 114°
2026-04-24 13:01 5.37245 6.19176 26928 ft 454 kts 114°
2026-04-24 13:01 5.35985 6.22055 26929 ft 454 kts 114°
2026-04-24 13:02 5.34709 6.24971 26929 ft 456 kts 114°
2026-04-24 13:02 5.33440 6.27880 26930 ft 459 kts 114°
2026-04-24 13:02 5.32161 6.30839 26930 ft 461 kts 114°
2026-04-24 13:02 5.30876 6.33785 26930 ft 463 kts 114°
2026-04-24 13:03 5.29571 6.36762 26931 ft 463 kts 114°
2026-04-24 13:03 5.28288 6.39681 26930 ft 461 kts 114°
2026-04-24 13:03 5.27000 6.42623 26930 ft 457 kts 114°
2026-04-24 13:03 5.25742 6.45517 26929 ft 450 kts 114°
2026-04-24 13:04 5.24502 6.48350 26927 ft 441 kts 114°
2026-04-24 13:04 5.23260 6.51176 26928 ft 438 kts 114°
2026-04-24 13:04 5.22042 6.53973 26929 ft 437 kts 114°
2026-04-24 13:04 5.20829 6.56775 26931 ft 437 kts 114°
2026-04-24 13:05 5.19616 6.59539 26932 ft 436 kts 114°
2026-04-24 13:05 5.18384 6.62335 26932 ft 436 kts 114°
2026-04-24 13:05 5.17175 6.65115 26932 ft 436 kts 114°
2026-04-24 13:05 5.15943 6.67927 26933 ft 439 kts 114°
2026-04-24 13:06 5.14708 6.70736 26933 ft 442 kts 114°
2026-04-24 13:06 5.13472 6.73575 26933 ft 445 kts 114°
2026-04-24 13:06 5.12233 6.76392 26933 ft 447 kts 114°
2026-04-24 13:06 5.10975 6.79266 26933 ft 450 kts 114°
2026-04-24 13:07 5.09726 6.82145 26934 ft 453 kts 114°
2026-04-24 13:07 5.08452 6.85041 26935 ft 456 kts 114°
2026-04-24 13:07 5.07166 6.87965 26935 ft 458 kts 114°
2026-04-24 13:07 5.05881 6.90916 26935 ft 460 kts 114°
2026-04-24 13:08 5.04583 6.93859 26934 ft 461 kts 114°
2026-04-24 13:08 5.03317 6.96816 26933 ft 461 kts 110°
2026-04-24 13:08 5.02559 6.99888 26932 ft 462 kts 98°
2026-04-24 13:09 5.02421 7.06338 26932 ft 458 kts 91°
2026-04-24 13:09 5.02307 7.09440 26723 ft 434 kts 95°
2026-04-24 13:09 5.02000 7.12360 26309 ft 417 kts 98°
2026-04-24 13:09 5.01569 7.15206 26205 ft 406 kts 99°
2026-04-24 13:10 5.01145 7.17989 26165 ft 405 kts 99°
2026-04-24 13:10 5.00774 7.20816 25840 ft 414 kts 97°
2026-04-24 13:10 5.00459 7.23745 25346 ft 421 kts 97°
2026-04-24 13:10 5.00175 7.26614 24854 ft 416 kts 97°
2026-04-24 13:11 4.99890 7.29405 24366 ft 411 kts 97°
2026-04-24 13:11 4.99585 7.32246 23864 ft 407 kts 97°
2026-04-24 13:11 4.99267 7.35062 23363 ft 404 kts 97°
2026-04-24 13:11 4.98937 7.37857 22861 ft 401 kts 96°
2026-04-24 13:12 4.98612 7.40629 22361 ft 399 kts 96°
2026-04-24 13:12 4.98303 7.43345 21867 ft 396 kts 95°
2026-04-24 13:12 4.97990 7.46095 21362 ft 393 kts 95°
2026-04-24 13:12 4.97688 7.48803 20860 ft 389 kts 94°
2026-04-24 13:13 4.97387 7.51489 20358 ft 386 kts 94°
2026-04-24 13:13 4.97088 7.54153 19856 ft 383 kts 94°
2026-04-24 13:13 4.96798 7.56822 19350 ft 381 kts 93°
2026-04-24 13:13 4.96511 7.59451 18851 ft 380 kts 94°
2026-04-24 13:14 4.96210 7.62054 18355 ft 377 kts 94°
2026-04-24 13:14 4.95907 7.64661 17856 ft 376 kts 94°
2026-04-24 13:14 4.95611 7.67268 17355 ft 375 kts 94°
2026-04-24 13:14 4.95310 7.69866 16855 ft 372 kts 94°
2026-04-24 13:15 4.95025 7.72406 16365 ft 369 kts 96°
2026-04-24 13:15 4.94777 7.74955 15849 ft 365 kts 89°
2026-04-24 13:15 4.94949 7.77472 15362 ft 362 kts 79°
2026-04-24 13:15 4.95544 7.79909 14861 ft 357 kts 69°
2026-04-24 13:16 4.96523 7.82178 14379 ft 356 kts 64°
2026-04-24 13:16 4.97605 7.84443 13876 ft 354 kts 64°
2026-04-24 13:16 4.98612 7.86662 13382 ft 349 kts 66°
2026-04-24 13:16 4.99522 7.88870 12883 ft 337 kts 68°
2026-04-24 13:17 5.00347 7.91022 12378 ft 324 kts 69°
2026-04-24 13:17 5.01131 7.93087 11873 ft 312 kts 69°
2026-04-24 13:17 5.01902 7.95070 11371 ft 303 kts 68°
2026-04-24 13:17 5.02681 7.97023 10862 ft 294 kts 68°
2026-04-24 13:18 5.03438 7.98900 10358 ft 288 kts 68°
2026-04-24 13:18 5.04162 8.00729 9860 ft 282 kts 68°
2026-04-24 13:18 5.04887 8.02564 9350 ft 276 kts 69°
2026-04-24 13:18 5.05579 8.04294 9075 ft 264 kts 69°
2026-04-24 13:19 5.06249 8.05975 8811 ft 253 kts 69°
2026-04-24 13:19 5.06882 8.07578 8554 ft 246 kts 70°
2026-04-24 13:19 5.07518 8.09182 8303 ft 246 kts 70°
2026-04-24 13:19 5.08153 8.10779 8041 ft 247 kts 69°
2026-04-24 13:20 5.08793 8.12381 7788 ft 247 kts 70°
2026-04-24 13:20 5.09426 8.13961 7540 ft 248 kts 69°
2026-04-24 13:20 5.10066 8.15569 7295 ft 247 kts 70°
2026-04-24 13:20 5.10699 8.17162 7036 ft 246 kts 70°
2026-04-24 13:21 5.11325 8.18740 6781 ft 244 kts 70°
2026-04-24 13:21 5.11962 8.20347 6542 ft 243 kts 70°
2026-04-24 13:21 5.12576 8.21901 6287 ft 242 kts 70°
2026-04-24 13:21 5.13195 8.23466 6028 ft 242 kts 70°
2026-04-24 13:22 5.13821 8.25028 5778 ft 242 kts 69°
2026-04-24 13:22 5.14450 8.26599 5536 ft 241 kts 70°
2026-04-24 13:22 5.15059 8.28145 5286 ft 240 kts 70°
2026-04-24 13:22 5.15683 8.29716 5034 ft 240 kts 69°
2026-04-24 13:23 5.16298 8.31266 4788 ft 240 kts 70°
2026-04-24 13:23 5.16916 8.32821 4526 ft 238 kts 70°
2026-04-24 13:23 5.17509 8.34335 4276 ft 233 kts 70°
2026-04-24 13:23 5.17811 8.35903 3974 ft 226 kts 95°
2026-04-24 13:24 5.17344 8.37358 3773 ft 216 kts 117°
2026-04-24 13:24 5.16653 8.38683 3528 ft 216 kts 120°
2026-04-24 13:24 5.15916 8.40007 3295 ft 216 kts 121°
2026-04-24 13:24 5.15017 8.41206 2951 ft 212 kts 145°
2026-04-24 13:25 5.13707 8.41497 2976 ft 187 kts 189°
2026-04-24 13:25 5.12541 8.41012 3035 ft 185 kts 206°
2026-04-24 13:25 5.11254 8.40689 2923 ft 206 kts 183°
2026-04-24 13:25 5.09777 8.40806 2750 ft 217 kts 171°
2026-04-24 13:26 5.08367 8.40736 2679 ft 192 kts 200°
2026-04-24 13:26 5.07259 8.40038 2326 ft 187 kts 214°
2026-04-24 13:26 5.06222 8.39372 2134 ft 172 kts 211°
2026-04-24 13:26 5.05246 8.38745 1922 ft 165 kts 211°
2026-04-24 13:27 5.04278 8.38151 1852 ft 157 kts 210°
2026-04-24 13:27 5.03354 8.37613 1744 ft 149 kts 208°
2026-04-24 13:27 5.02449 8.37130 1553 ft 149 kts 206°
2026-04-24 13:27 5.01518 8.36683 1283 ft 148 kts 204°
2026-04-24 13:28 5.00598 8.36221 915 ft 145 kts 206°
2026-04-24 13:28 4.99708 8.35773 585 ft 145 kts 206°
2026-04-24 13:28 4.98793 8.35322 300 ft 143 kts 205°
2026-04-24 13:28 4.97964 8.34905 219 ft 125 kts 205°
2026-04-24 13:29 4.97304 8.34574 219 ft 77 kts 205°
2026-04-24 13:29 4.97032 8.34438 218 ft 11 kts 216°
2026-04-24 13:29 4.96998 8.34420 218 ft 2 kts 135°
2026-04-24 13:29 4.96997 8.34428 218 ft 1 kts 65°
2026-04-24 13:30 4.97002 8.34439 218 ft 3 kts 71°
2026-04-24 13:30 4.96998 8.34475 218 ft 5 kts 110°
2026-04-24 13:30 4.96985 8.34505 218 ft 6 kts 114°
2026-04-24 13:30 4.96964 8.34547 218 ft 8 kts 116°
2026-04-24 13:31 4.96949 8.34585 218 ft 5 kts 88°
2026-04-24 13:31 4.96966 8.34615 218 ft 5 kts 62°
2026-04-24 13:31 4.96962 8.34641 218 ft 1 kts 137°
2026-04-24 13:31 4.96957 8.34644 218 ft 2 kts 143°
2026-04-24 13:32 4.96950 8.34645 218 ft 2 kts 192°
2026-04-24 13:32 4.96946 8.34643 218 ft 0 kts 212°